This is the latest recevied weather packets stored in our database for station/object W2IRT. If no packets are shown the sender has not sent any weather packets the latest 10 day(s).
| Time | Temp. | Humidity | Pressure | Rain* | Wind** | Luminosity | Snow |
|---|---|---|---|---|---|---|---|
| 1777595116 | 13.33° C | 65% | 1008.2 hPa | 0 mm | - | - | - |
| 1777594816 | 13.33° C | 64% | 1008.1 hPa | 0 mm | - | - | - |
| 1777594516 | 13.89° C | 63% | 1008 hPa | 0 mm | - | - | - |
| 1777594216 | 13.89° C | 61% | 1007.9 hPa | 0 mm | - | - | - |
| 1777593916 | 14.44° C | 60% | 1007.8 hPa | 0 mm | - | - | - |
| 1777593616 | 14.44° C | 61% | 1007.7 hPa | 0 mm | - | - | - |
| 1777593316 | 14.44° C | 58% | 1007.5 hPa | 0 mm | - | - | - |
| 1777593016 | 14.44° C | 56% | 1007.5 hPa | 0 mm | - | - | - |
| 1777592716 | 15° C | 56% | 1007.6 hPa | 0 mm | - | - | - |
| 1777592416 | 15° C | 56% | 1007.7 hPa | 0 mm | - | - | - |
| 1777592116 | 15° C | 55% | 1007.6 hPa | 0 mm | - | - | - |
| 1777591816 | 15° C | 55% | 1007.6 hPa | 0 mm | - | - | - |
| 1777591516 | 15.56° C | 56% | 1007.5 hPa | 0 mm | - | - | - |
| 1777591216 | 15.56° C | 56% | 1007.4 hPa | 0 mm | - | - | - |
| 1777590916 | 15.56° C | 56% | 1007.2 hPa | 0 mm | - | - | - |
| 1777590616 | 15.56° C | 54% | 1007.3 hPa | 0 mm | - | - | - |
| 1777590316 | 15.56° C | 55% | 1007.2 hPa | 0 mm | - | - | - |
| 1777590016 | 16.11° C | 56% | 1007.3 hPa | 0 mm | - | - | - |
| 1777589716 | 16.11° C | 56% | 1007.2 hPa | 0 mm | - | - | - |
| 1777589416 | 16.11° C | 58% | 1007.2 hPa | 0 mm | - | - | - |
| 1777589116 | 16.11° C | 56% | 1007.1 hPa | 0 mm | - | - | - |
| 1777588816 | 16.11° C | 54% | 1007 hPa | 0 mm | - | - | - |
| 1777588516 | 16.11° C | 53% | 1007 hPa | 0 mm | - | - | - |
| 1777588216 | 16.11° C | 54% | 1007 hPa | 0 mm | - | - | - |
| 1777587921 | 16.11° C | 57% | 1007 hPa | 0 mm | - | - | - |
* Rain latest hour (hover to see other rain measurements)
** Current wind speed in m/s (hover to see current wind gust speed)